Peotone Weather
Station Historical Data
 
Daily Summary for April 20, 2019 Units:  English    Metric   Both
« Previous Day
Next Day »
Daily Weekly Monthly Yearly Custom
  Current: High: Low: Average:
Temperature: 58.8 °F 58.8 °F 38.4 °F 44.1 °F
Dew Point: 19.0 °F 31.7 °F 17.3 °F 28.1 °F
Humidity: 21% 71% 21% 56%
Wind Speed: 14.9mph 20.7mph 0.0mph 8.1mph
Wind Gust: 20.7mph 29.9mph - -
WindNorth - - SW
Pressure: 29.85 in 29.85 in 29.80 in -
Precipitation: 0.00 in      
Historical Graphs
 
 
Tabular Data for April 20, 2019
Time Temperature Dew Point Pressure Wind Wind Speed Wind Gust Humidity Rainfall Rate (Hourly) solar Conditions
00:04 41.3 °F 31.2 °F 29.83 in North 11.5 mph 12.6 mph 67% 0.00 in 0.00 W/m2
00:09 41.2 °F 31.1 °F 29.83 in NNW 8.1 mph 16.1 mph 67% 0.00 in 0.00 W/m2
00:14 41.0 °F 31.3 °F 29.83 in North 8.1 mph 12.6 mph 68% 0.00 in 0.00 W/m2
00:19 40.8 °F 31.4 °F 29.83 in North 8.1 mph 9.2 mph 69% 0.00 in 0.00 W/m2
00:24 40.7 °F 31.7 °F 29.82 in North 2.3 mph 11.5 mph 70% 0.00 in 0.00 W/m2
00:29 40.7 °F 31.7 °F 29.82 in NNW 4.6 mph 12.6 mph 70% 0.00 in 0.00 W/m2
00:33 40.4 °F 31.4 °F 29.82 in North 4.6 mph 9.2 mph 70% 0.00 in 0.00 W/m2
00:39 40.2 °F 31.6 °F 29.82 in North 2.3 mph 10.3 mph 71% 0.00 in 0.00 W/m2
00:44 40.3 °F 31.7 °F 29.82 in NNW 4.6 mph 10.3 mph 71% 0.00 in 0.00 W/m2
00:49 40.2 °F 31.6 °F 29.82 in NNE 8.1 mph 13.8 mph 71% 0.00 in 0.00 W/m2
00:54 40.3 °F 31.3 °F 29.82 in North 2.3 mph 10.3 mph 70% 0.00 in 0.00 W/m2
00:59 40.3 °F 31.3 °F 29.81 in NNE 6.9 mph 9.2 mph 70% 0.00 in 0.00 W/m2
01:04 40.3 °F 31.3 °F 29.82 in NNE 3.4 mph 13.8 mph 70% 0.00 in 0.00 W/m2
01:09 40.5 °F 31.1 °F 29.81 in North 4.6 mph 14.9 mph 69% 0.00 in 0.00 W/m2
01:14 40.6 °F 31.2 °F 29.81 in North 4.6 mph 16.1 mph 69% 0.00 in 0.00 W/m2
01:18 40.5 °F 31.1 °F 29.82 in Calm   12.6 mph 69% 0.00 in 0.00 W/m2
01:24 40.7 °F 31.3 °F 29.81 in North 2.3 mph 12.6 mph 69% 0.00 in 0.00 W/m2
01:29 40.4 °F 31.1 °F 29.81 in North 3.4 mph 10.3 mph 69% 0.00 in 0.00 W/m2
01:34 40.3 °F 30.9 °F 29.81 in North 1.1 mph 10.3 mph 69% 0.00 in 0.00 W/m2
01:39 40.2 °F 30.9 °F 29.81 in NNW 5.8 mph 11.5 mph 69% 0.00 in 0.00 W/m2
01:44 40.2 °F 30.9 °F 29.81 in NNW 4.6 mph 10.3 mph 69% 0.00 in 0.00 W/m2
01:48 40.1 °F 30.8 °F 29.81 in NNE 2.3 mph 12.6 mph 69% 0.00 in 0.00 W/m2
01:54 40.5 °F 30.8 °F 29.81 in North 8.1 mph 17.2 mph 68% 0.00 in 0.00 W/m2
01:59 40.5 °F 30.8 °F 29.81 in NNW 4.6 mph 11.5 mph 68% 0.00 in 0.00 W/m2
02:04 40.1 °F 30.8 °F 29.80 in WNW 8.1 mph 11.5 mph 69% 0.00 in 0.00 W/m2
02:09 40.3 °F 30.9 °F 29.80 in NNW 2.3 mph 9.2 mph 69% 0.00 in 0.00 W/m2
02:14 40.0 °F 30.7 °F 29.80 in NNW 6.9 mph 9.2 mph 69% 0.00 in 0.00 W/m2
02:19 39.7 °F 30.7 °F 29.80 in NNW 5.8 mph 11.5 mph 70% 0.00 in 0.00 W/m2
02:24 39.8 °F 30.8 °F 29.80 in NNW 4.6 mph 9.2 mph 70% 0.00 in 0.00 W/m2
02:29 39.9 °F 30.6 °F 29.80 in North 5.8 mph 12.6 mph 69% 0.00 in 0.00 W/m2
02:34 40.1 °F 30.8 °F 29.80 in NNW 2.3 mph 11.5 mph 69% 0.00 in 0.00 W/m2
02:39 39.6 °F 30.6 °F 29.80 in NW 5.8 mph 9.2 mph 70% 0.00 in 0.00 W/m2
02:44 39.3 °F 30.4 °F 29.80 in NW 8.1 mph 12.6 mph 70% 0.00 in 0.00 W/m2
02:49 39.5 °F 30.5 °F 29.80 in NNW 5.8 mph 13.8 mph 70% 0.00 in 0.00 W/m2
02:54 39.6 °F 30.6 °F 29.80 in NNW 9.2 mph 12.6 mph 70% 0.00 in 0.00 W/m2
02:59 39.9 °F 30.6 °F 29.80 in NNE 6.9 mph 14.9 mph 69% 0.00 in 0.00 W/m2
03:04 40.2 °F 30.5 °F 29.80 in North 9.2 mph 12.6 mph 68% 0.00 in 0.00 W/m2
03:09 40.5 °F 30.1 °F 29.80 in North 9.2 mph 17.2 mph 66% 0.00 in 0.00 W/m2
03:14 40.5 °F 30.1 °F 29.80 in NNE 6.9 mph 13.8 mph 66% 0.00 in 0.00 W/m2
03:19 40.3 °F 29.9 °F 29.80 in North 3.4 mph 13.8 mph 66% 0.00 in 0.00 W/m2
03:23 40.6 °F 29.8 °F 29.80 in NNW 9.2 mph 17.2 mph 65% 0.00 in 0.00 W/m2
03:29 40.6 °F 29.8 °F 29.80 in NNW 4.6 mph 14.9 mph 65% 0.00 in 0.00 W/m2
03:34 40.7 °F 29.9 °F 29.80 in NNW 6.9 mph 14.9 mph 65% 0.00 in 0.00 W/m2
03:39 40.7 °F 29.9 °F 29.80 in North 5.8 mph 14.9 mph 65% 0.00 in 0.00 W/m2
03:44 40.6 °F 29.8 °F 29.80 in NNW 13.8 mph 16.1 mph 65% 0.00 in 0.00 W/m2
03:49 40.7 °F 29.9 °F 29.80 in NNW 8.1 mph 13.8 mph 65% 0.00 in 0.00 W/m2
03:53 40.8 °F 29.6 °F 29.80 in NNW 5.8 mph 13.8 mph 64% 0.00 in 0.00 W/m2
03:59 40.8 °F 29.6 °F 29.80 in NNE 6.9 mph 18.4 mph 64% 0.00 in 0.00 W/m2
04:04 40.8 °F 29.6 °F 29.80 in NNE 8.1 mph 14.9 mph 64% 0.00 in 0.00 W/m2
04:09 40.8 °F 29.2 °F 29.80 in NNE 16.1 mph 18.4 mph 63% 0.00 in 0.00 W/m2
04:14 41.1 °F 29.1 °F 29.80 in North 6.9 mph 25.3 mph 62% 0.00 in 0.00 W/m2
04:18 41.3 °F 29.3 °F 29.80 in NNE 8.1 mph 14.9 mph 62% 0.00 in 0.00 W/m2
04:24 41.3 °F 29.3 °F 29.80 in North 4.6 mph 18.4 mph 62% 0.00 in 0.00 W/m2
04:29 41.1 °F 29.1 °F 29.80 in North 5.8 mph 14.9 mph 62% 0.00 in 0.00 W/m2
04:34 41.0 °F 29.4 °F 29.80 in NNW 14.9 mph 18.4 mph 63% 0.00 in 0.00 W/m2
04:39 40.9 °F 29.3 °F 29.80 in NNW 11.5 mph 19.5 mph 63% 0.00 in 0.00 W/m2
04:43 41.0 °F 29.4 °F 29.80 in NNW 3.4 mph 13.8 mph 63% 0.00 in 0.00 W/m2
04:49 40.5 °F 29.3 °F 29.80 in NNW 10.3 mph 14.9 mph 64% 0.00 in 0.00 W/m2
04:54 39.7 °F 29.3 °F 29.80 in North 4.6 mph 14.9 mph 66% 0.00 in 0.00 W/m2
04:59 39.4 °F 29.4 °F 29.80 in NNW 6.9 mph 17.2 mph 67% 0.00 in 0.00 W/m2
05:04 39.2 °F 29.2 °F 29.80 in NNW 6.9 mph 12.6 mph 67% 0.00 in 0.00 W/m2
05:09 38.9 °F 29.2 °F 29.80 in North 9.2 mph 19.5 mph 68% 0.00 in 0.00 W/m2
05:14 38.8 °F 29.2 °F 29.80 in North 10.3 mph 10.3 mph 68% 0.00 in 0.00 W/m2
05:19 39.0 °F 29.4 °F 29.80 in NNE 5.8 mph 12.6 mph 68% 0.00 in 0.00 W/m2
05:24 39.0 °F 29.4 °F 29.80 in NNW 5.8 mph 13.8 mph 68% 0.00 in 0.00 W/m2
05:29 38.8 °F 29.2 °F 29.80 in NNW 6.9 mph 14.9 mph 68% 0.00 in 0.00 W/m2
05:34 38.9 °F 28.9 °F 29.80 in NNE 4.6 mph 13.8 mph 67% 0.00 in 0.00 W/m2
05:39 38.7 °F 29.1 °F 29.80 in NNE 2.3 mph 9.2 mph 68% 0.00 in 0.00 W/m2
05:44 38.7 °F 29.1 °F 29.80 in North 2.3 mph 13.8 mph 68% 0.00 in 0.00 W/m2
05:49 38.6 °F 29.0 °F 29.80 in NNW 5.8 mph 11.5 mph 68% 0.00 in 0.00 W/m2
05:54 38.5 °F 28.9 °F 29.80 in NNW 4.6 mph 11.5 mph 68% 0.00 in 0.00 W/m2
05:59 38.4 °F 28.8 °F 29.81 in North 8.1 mph 10.3 mph 68% 0.00 in 0.00 W/m2
06:04 38.4 °F 28.8 °F 29.81 in NNW 10.3 mph 10.3 mph 68% 0.00 in 0.00 W/m2
06:09 38.5 °F 28.5 °F 29.81 in NNW 3.4 mph 11.5 mph 67% 0.00 in 5.00 W/m2
06:14 38.4 °F 28.4 °F 29.81 in NNW 3.4 mph 11.5 mph 67% 0.00 in 9.00 W/m2
06:19 38.5 °F 28.5 °F 29.81 in NNE 3.4 mph 14.9 mph 67% 0.00 in 12.00 W/m2
06:24 38.6 °F 28.2 °F 29.81 in North 3.4 mph 12.6 mph 66% 0.00 in 18.00 W/m2
06:29 38.7 °F 28.3 °F 29.81 in North 4.6 mph 11.5 mph 66% 0.00 in 47.00 W/m2
06:34 38.9 °F 28.5 °F 29.81 in NNE 8.1 mph 12.6 mph 66% 0.00 in 62.00 W/m2
06:39 39.1 °F 28.7 °F 29.81 in NNW 6.9 mph 10.3 mph 66% 0.00 in 77.00 W/m2
06:44 39.5 °F 28.7 °F 29.81 in North 10.3 mph 10.3 mph 65% 0.00 in 95.00 W/m2
06:49 39.9 °F 29.1 °F 29.81 in NNW 4.6 mph 13.8 mph 65% 0.00 in 116.00 W/m2
06:53 40.3 °F 28.7 °F 29.81 in NNW 6.9 mph 16.1 mph 63% 0.00 in 130.00 W/m2
06:59 40.7 °F 28.7 °F 29.81 in North 2.3 mph 13.8 mph 62% 0.00 in 149.00 W/m2
07:04 41.0 °F 29.0 °F 29.81 in NNW 10.3 mph 12.6 mph 62% 0.00 in 167.00 W/m2
07:09 41.5 °F 28.7 °F 29.82 in NNW 16.1 mph 16.1 mph 60% 0.00 in 181.00 W/m2
07:14 41.9 °F 28.2 °F 29.82 in NNW 9.2 mph 14.9 mph 58% 0.00 in 197.00 W/m2
07:19 42.2 °F 28.5 °F 29.82 in North 8.1 mph 13.8 mph 58% 0.00 in 216.00 W/m2
07:23 42.5 °F 28.4 °F 29.82 in North 8.1 mph 14.9 mph 57% 0.00 in 230.00 W/m2
07:29 42.9 °F 28.3 °F 29.82 in NNE 5.8 mph 17.2 mph 56% 0.00 in 251.00 W/m2
07:34 43.5 °F 28.4 °F 29.82 in NNE 12.6 mph 14.9 mph 55% 0.00 in 269.00 W/m2
07:39 43.8 °F 27.8 °F 29.83 in NNW 14.9 mph 18.4 mph 53% 0.00 in 250.00 W/m2
07:44 44.3 °F 27.3 °F 29.83 in NNE 12.6 mph 18.4 mph 51% 0.00 in 221.00 W/m2
07:48 44.2 °F 27.2 °F 29.83 in NNE 5.8 mph 17.2 mph 51% 0.00 in 207.00 W/m2
07:54 44.5 °F 28.0 °F 29.83 in NNE 9.2 mph 16.1 mph 52% 0.00 in 209.00 W/m2
07:58 44.9 °F 27.4 °F 29.83 in NNW 6.9 mph 16.1 mph 50% 0.00 in 308.00 W/m2
08:04 45.3 °F 27.3 °F 29.83 in NNE 14.9 mph 20.7 mph 49% 0.00 in 251.00 W/m2
08:09 45.4 °F 28.4 °F 29.83 in NNW 8.1 mph 16.1 mph 51% 0.00 in 172.00 W/m2
08:13 45.5 °F 27.5 °F 29.83 in NNE 4.6 mph 19.5 mph 49% 0.00 in 336.00 W/m2
08:19 45.9 °F 27.3 °F 29.83 in North 14.9 mph 14.9 mph 48% 0.00 in 114.00 W/m2
08:24 46.4 °F 28.8 °F 29.83 in NNW 11.5 mph 13.8 mph 50% 0.00 in 132.00 W/m2
08:29 46.9 °F 27.2 °F 29.84 in NE 5.8 mph 12.6 mph 46% 0.00 in 390.00 W/m2
08:34 47.2 °F 29.5 °F 29.84 in NW 9.2 mph 19.5 mph 50% 0.00 in 476.00 W/m2
08:39 47.4 °F 28.2 °F 29.84 in North 16.1 mph 17.2 mph 47% 0.00 in 496.00 W/m2
08:44 47.9 °F 28.7 °F 29.84 in NNE 11.5 mph 21.9 mph 47% 0.00 in 513.00 W/m2
08:49 48.1 °F 27.8 °F 29.83 in NW 13.8 mph 17.2 mph 45% 0.00 in 529.00 W/m2
08:54 48.6 °F 28.2 °F 29.83 in North 6.9 mph 18.4 mph 45% 0.00 in 545.00 W/m2
08:59 48.6 °F 26.6 °F 29.84 in North 8.1 mph 18.4 mph 42% 0.00 in 563.00 W/m2
09:04 49.2 °F 29.3 °F 29.84 in NE 8.1 mph 17.2 mph 46% 0.00 in 578.00 W/m2
09:09 49.4 °F 27.3 °F 29.83 in North 12.6 mph 19.5 mph 42% 0.00 in 594.00 W/m2
09:14 49.7 °F 27.0 °F 29.83 in North 12.6 mph 23.0 mph 41% 0.00 in 612.00 W/m2
09:19 50.5 °F 28.9 °F 29.83 in NW 8.1 mph 18.4 mph 43% 0.00 in 628.00 W/m2
09:23 50.7 °F 26.0 °F 29.83 in North 16.1 mph 19.5 mph 38% 0.00 in 638.00 W/m2
09:29 51.1 °F 25.8 °F 29.83 in North 17.2 mph 20.7 mph 37% 0.00 in 654.00 W/m2
09:34 51.4 °F 25.4 °F 29.83 in NNE 13.8 mph 20.7 mph 36% 0.00 in 668.00 W/m2
09:39 51.7 °F 24.9 °F 29.83 in North 12.6 mph 23.0 mph 35% 0.00 in 686.00 W/m2
09:44 52.0 °F 26.6 °F 29.83 in NNE 9.2 mph 23.0 mph 37% 0.00 in 700.00 W/m2
09:49 52.5 °F 25.7 °F 29.84 in North 6.9 mph 21.9 mph 35% 0.00 in 712.00 W/m2
09:54 53.0 °F 23.9 °F 29.84 in North 4.6 mph 23.0 mph 32% 0.00 in 728.00 W/m2
09:59 53.3 °F 25.7 °F 29.84 in NNW 9.2 mph 20.7 mph 34% 0.00 in 744.00 W/m2
10:04 53.4 °F 22.8 °F 29.84 in NNE 8.1 mph 25.3 mph 30% 0.00 in 751.00 W/m2
10:09 54.0 °F 21.6 °F 29.84 in North 12.6 mph 27.6 mph 28% 0.00 in 763.00 W/m2
10:14 54.1 °F 22.6 °F 29.84 in North 11.5 mph 21.9 mph 29% 0.00 in 777.00 W/m2
10:19 54.3 °F 17.3 °F 29.84 in NNW 8.1 mph 25.3 mph 23% 0.00 in 789.00 W/m2
10:24 55.0 °F 22.5 °F 29.84 in NNE 5.8 mph 18.4 mph 28% 0.00 in 802.00 W/m2
10:29 55.6 °F 21.3 °F 29.85 in NE 17.2 mph 26.4 mph 26% 0.00 in 812.00 W/m2
10:34 55.9 °F 20.6 °F 29.84 in North 14.9 mph 21.9 mph 25% 0.00 in 824.00 W/m2
10:39 55.5 °F 18.3 °F 29.85 in North 10.3 mph 24.1 mph 23% 0.00 in 833.00 W/m2
10:44 55.9 °F 19.6 °F 29.85 in NNW 20.7 mph 23.0 mph 24% 0.00 in 844.00 W/m2
10:48 56.0 °F 18.8 °F 29.85 in NNW 11.5 mph 29.9 mph 23% 0.00 in 853.00 W/m2
10:54 56.2 °F 20.9 °F 29.85 in North 20.7 mph 25.3 mph 25% 0.00 in 865.00 W/m2
10:59 56.8 °F 18.4 °F 29.85 in North 11.5 mph 17.2 mph 22% 0.00 in 875.00 W/m2
11:04 57.7 °F 23.1 °F 29.85 in NNW 18.4 mph 28.8 mph 26% 0.00 in 882.00 W/m2
11:09 57.9 °F 20.4 °F 29.85 in NNE 3.4 mph 19.5 mph 23% 0.00 in 889.00 W/m2
11:14 57.7 °F 22.1 °F 29.85 in North 18.4 mph 19.5 mph 25% 0.00 in 898.00 W/m2
11:19 58.1 °F 22.5 °F 29.85 in North 8.1 mph 18.4 mph 25% 0.00 in 905.00 W/m2
11:24 58.8 °F 25.8 °F 29.85 in NNE 14.9 mph 19.5 mph 28% 0.00 in 911.00 W/m2
11:29 58.5 °F 22.8 °F 29.85 in North 4.6 mph 20.7 mph 25% 0.00 in 921.00 W/m2
11:34 58.8 °F 19.0 °F 29.85 in North 14.9 mph 20.7 mph 21% 0.00 in 925.00 W/m2
Juneau County Weather
Compliments of Weather Underground - 2 mb